Precipitable_Water
0.79 0.87 0.92 1.10 1.12 1.09 0.96 0.87 0.82 0.83 0.83 0.77 0.79 0.76 0.77 0.82 0.79 0.64 0.42 0.44 0.49 0.60 0.46 0.35 0.31 0.24 0.24 0.23 0.26 0.25 0.15 0.15 0.17 0.15 0.21 0.31 0.29 0.34 0.34 0.29 0.35 0.42 0.39 0.54 0.77
0.70 0.79 0.88 0.94 1.04 1.11 1.08 0.93 0.84 0.82 0.81 0.81 0.77 0.78 0.77 0.81 0.65 0.50 0.59 0.57 0.55 0.65 0.40 0.26 0.20 0.21 0.18 0.20 0.21 0.18 0.14 0.14 0.19 0.19 0.22 0.29 0.31 0.29 0.28 0.28 0.29 0.36 0.49 0.64 0.77
0.62 0.69 0.83 0.87 0.97 1.06 1.11 1.08 0.90 0.84 0.81 0.81 0.80 0.77 0.80 0.75 0.48 0.41 0.63 0.61 0.61 0.61 0.50 0.34 0.25 0.21 0.16 0.19 0.18 0.15 0.11 0.13 0.14 0.19 0.25 0.27 0.29 0.30 0.26 0.24 0.28 0.27 0.38 0.56 0.68
0.62 0.62 0.79 0.86 0.88 0.96 1.08 1.11 1.05 0.86 0.82 0.80 0.82 0.78 0.82 0.64 0.24 0.48 0.66 0.64 0.66 0.60 0.48 0.32 0.24 0.18 0.15 0.13 0.18 0.12 0.13 0.12 0.17 0.22 0.24 0.25 0.31 0.27 0.27 0.26 0.29 0.32 0.41 0.53 0.58
0.59 0.60 0.65 0.81 0.83 0.86 1.03 1.08 1.13 0.96 0.84 0.80 0.81 0.82 0.71 0.46 0.38 0.67 0.69 0.75 0.63 0.51 0.42 0.32 0.23 0.21 0.14 0.15 0.16 0.13 0.15 0.17 0.20 0.22 0.23 0.26 0.26 0.26 0.25 0.28 0.30 0.31 0.41 0.49 0.56
0.60 0.60 0.65 0.74 0.79 0.78 0.93 1.06 1.12 1.08 0.86 0.82 0.80 0.84 0.62 0.36 0.56 0.72 0.74 0.69 0.56 0.46 0.42 0.37 0.27 0.25 0.19 0.18 0.15 0.15 0.17 0.20 0.23 0.23 0.25 0.24 0.25 0.27 0.26 0.29 0.29 0.33 0.35 0.46 0.53
0.61 0.62 0.63 0.67 0.76 0.86 0.88 1.03 1.11 1.14 0.94 0.82 0.80 0.76 0.57 0.45 0.61 0.72 0.68 0.62 0.58 0.47 0.40 0.41 0.36 0.26 0.27 0.20 0.23 0.21 0.16 0.20 0.22 0.24 0.25 0.27 0.21 0.22 0.29 0.31 0.30 0.32 0.38 0.44 0.53
0.56 0.63 0.62 0.63 0.69 0.87 0.91 0.97 1.10 1.17 1.04 0.83 0.81 0.73 0.46 0.67 0.71 0.66 0.61 0.59 0.58 0.51 0.48 0.48 0.42 0.32 0.31 0.31 0.26 0.21 0.20 0.16 0.21 0.24 0.25 0.24 0.17 0.25 0.34 0.33 0.30 0.31 0.32 0.41 0.50
0.58 0.57 0.62 0.65 0.68 0.86 0.88 0.91 1.04 1.20 1.09 0.90 0.75 0.60 0.41 0.65 0.55 0.60 0.59 0.52 0.55 0.50 0.52 0.50 0.43 0.33 0.33 0.27 0.24 0.23 0.17 0.16 0.20 0.27 0.26 0.24 0.21 0.29 0.35 0.34 0.32 0.32 0.34 0.35 0.38
0.63 0.59 0.57 0.64 0.68 0.77 0.89 0.89 0.97 1.16 1.10 0.92 0.77 0.49 0.49 0.42 0.54 0.57 0.56 0.54 0.54 0.47 0.45 0.43 0.37 0.29 0.28 0.25 0.16 0.19 0.19 0.21 0.20 0.25 0.27 0.25 0.25 0.30 0.34 0.34 0.33 0.35 0.37 0.38 0.36
0.61 0.56 0.55 0.59 0.71 0.78 0.81 0.77 0.76 0.76 0.87 0.60 0.52 0.42 0.43 0.50 0.57 0.53 0.56 0.49 0.51 0.46 0.31 0.38 0.29 0.21 0.23 0.27 0.28 0.26 0.23 0.22 0.25 0.30 0.26 0.25 0.26 0.29 0.33 0.34 0.33 0.34 0.36 0.38 0.39
0.59 0.50 0.47 0.53 0.69 0.76 0.76 0.64 0.70 0.77 0.61 0.78 0.64 0.53 0.50 0.49 0.39 0.48 0.58 0.41 0.40 0.33 0.38 0.33 0.25 0.31 0.31 0.30 0.27 0.26 0.24 0.24 0.28 0.31 0.28 0.27 0.25 0.30 0.31 0.31 0.31 0.31 0.34 0.39 0.43
0.60 0.51 0.48 0.50 0.60 0.67 0.66 0.66 0.83 0.85 0.60 0.65 0.65 0.54 0.45 0.45 0.37 0.39 0.49 0.43 0.36 0.34 0.32 0.28 0.29 0.36 0.31 0.28 0.26 0.27 0.24 0.24 0.24 0.29 0.30 0.26 0.22 0.24 0.28 0.30 0.30 0.30 0.30 0.32 0.33
0.59 0.55 0.52 0.51 0.46 0.57 0.55 0.73 0.79 0.81 0.44 0.49 0.58 0.56 0.53 0.45 0.34 0.47 0.50 0.43 0.35 0.30 0.35 0.34 0.36 0.33 0.31 0.28 0.30 0.24 0.31 0.28 0.26 0.24 0.18 0.25 0.15 0.19 0.24 0.25 0.29 0.30 0.30 0.32 0.35
0.57 0.57 0.56 0.55 0.45 0.40 0.51 0.67 0.76 0.72 0.23 0.44 0.56 0.71 0.57 0.40 0.35 0.40 0.51 0.43 0.32 0.30 0.32 0.29 0.31 0.31 0.30 0.31 0.34 0.29 0.34 0.31 0.29 0.26 0.23 0.22 0.18 0.18 0.22 0.22 0.26 0.31 0.32 0.35 0.40
0.56 0.55 0.54 0.52 0.50 0.54 0.59 0.56 0.62 0.35 0.22 0.36 0.53 0.51 0.47 0.42 0.37 0.40 0.40 0.46 0.43 0.34 0.32 0.31 0.35 0.35 0.33 0.36 0.36 0.36 0.32 0.32 0.31 0.28 0.17 0.19 0.18 0.14 0.17 0.19 0.22 0.28 0.32 0.36 0.40
0.58 0.58 0.54 0.53 0.39 0.56 0.56 0.41 0.29 0.24 0.37 0.36 0.42 0.48 0.43 0.37 0.34 0.35 0.32 0.32 0.28 0.24 0.25 0.30 0.29 0.34 0.35 0.30 0.35 0.32 0.26 0.20 0.19 0.18 0.13 0.19 0.16 0.14 0.16 0.20 0.24 0.25 0.30 0.35 0.39
0.59 0.56 0.51 0.50 0.55 0.57 0.46 0.28 0.19 0.29 0.34 0.46 0.43 0.45 0.39 0.41 0.37 0.32 0.32 0.27 0.32 0.28 0.25 0.22 0.20 0.29 0.33 0.29 0.25 0.26 0.23 0.17 0.11 0.12 0.13 0.19 0.13 0.13 0.22 0.24 0.25 0.28 0.30 0.33 0.35
0.58 0.49 0.45 0.49 0.53 0.55 0.34 0.17 0.17 0.27 0.39 0.41 0.45 0.39 0.40 0.43 0.38 0.34 0.29 0.27 0.28 0.29 0.22 0.22 0.22 0.34 0.34 0.33 0.29 0.25 0.20 0.24 0.16 0.17 0.13 0.15 0.16 0.18 0.22 0.21 0.23 0.24 0.27 0.29 0.32
0.48 0.42 0.41 0.59 0.62 0.49 0.29 0.18 0.19 0.26 0.33 0.40 0.37 0.40 0.35 0.39 0.37 0.34 0.28 0.31 0.29 0.30 0.29 0.23 0.19 0.31 0.33 0.35 0.32 0.26 0.27 0.17 0.18 0.11 0.09 0.11 0.12 0.10 0.14 0.16 0.21 0.22 0.25 0.28 0.32
0.46 0.33 0.46 0.62 0.63 0.40 0.21 0.21 0.24 0.31 0.37 0.35 0.40 0.40 0.39 0.38 0.39 0.33 0.29 0.29 0.31 0.30 0.30 0.25 0.20 0.25 0.31 0.26 0.23 0.24 0.20 0.21 0.20 0.17 0.10 0.08 0.09 0.14 0.14 0.18 0.19 0.23 0.27 0.30 0.33
0.42 0.25 0.54 0.61 0.33 0.36 0.27 0.30 0.34 0.33 0.40 0.40 0.45 0.46 0.40 0.40 0.39 0.37 0.31 0.29 0.33 0.31 0.25 0.26 0.23 0.19 0.21 0.31 0.32 0.27 0.20 0.18 0.13 0.13 0.15 0.13 0.10 0.17 0.19 0.22 0.24 0.25 0.28 0.32 0.35
0.32 0.32 0.52 0.55 0.26 0.27 0.33 0.32 0.36 0.32 0.37 0.40 0.40 0.49 0.47 0.40 0.37 0.40 0.37 0.39 0.38 0.29 0.26 0.27 0.22 0.17 0.20 0.26 0.29 0.24 0.24 0.23 0.20 0.19 0.13 0.12 0.11 0.22 0.23 0.24 0.26 0.26 0.30 0.32 0.34
0.34 0.24 0.34 0.42 0.41 0.33 0.29 0.28 0.28 0.37 0.36 0.45 0.41 0.48 0.43 0.40 0.41 0.39 0.40 0.42 0.41 0.37 0.33 0.28 0.21 0.17 0.13 0.13 0.21 0.20 0.22 0.23 0.20 0.15 0.12 0.12 0.12 0.17 0.21 0.23 0.27 0.29 0.32 0.33 0.35
0.36 0.30 0.35 0.24 0.29 0.32 0.33 0.30 0.29 0.29 0.40 0.42 0.39 0.42 0.39 0.38 0.38 0.39 0.43 0.44 0.44 0.43 0.39 0.33 0.21 0.20 0.19 0.19 0.21 0.19 0.19 0.21 0.19 0.16 0.15 0.14 0.14 0.16 0.21 0.24 0.29 0.32 0.33 0.33 0.34
0.32 0.31 0.33 0.30 0.34 0.31 0.31 0.29 0.30 0.32 0.34 0.36 0.35 0.37 0.41 0.36 0.38 0.34 0.40 0.42 0.38 0.42 0.38 0.38 0.27 0.27 0.22 0.24 0.23 0.19 0.22 0.22 0.20 0.19 0.19 0.19 0.18 0.24 0.29 0.33 0.33 0.34 0.34 0.33 0.34
0.37 0.44 0.34 0.30 0.31 0.29 0.29 0.31 0.31 0.36 0.36 0.41 0.40 0.39 0.37 0.37 0.44 0.47 0.47 0.47 0.45 0.41 0.36 0.35 0.31 0.28 0.23 0.28 0.27 0.22 0.22 0.22 0.23 0.24 0.23 0.20 0.23 0.30 0.29 0.31 0.32 0.34 0.36 0.36 0.37
Wind_Speed
39 37 36 33 32 34 33 32 30 29 30 28 27 26 25 25 25 26 26 24 24 23 22 22 21 20 19 18 17 16 14 15 14 13 11 13 12 9 8 8 8 9 6 6 11
42 42 41 38 36 34 35 35 33 31 31 31 29 27 26 26 26 28 27 26 25 24 23 24 23 22 20 19 18 18 17 17 14 13 13 14 13 12 10 10 10 10 8 8 10
42 43 43 43 40 38 36 37 36 34 33 31 31 28 28 27 25 27 29 29 28 27 24 23 23 21 20 20 20 19 18 17 16 15 14 15 14 12 11 11 12 12 11 11 11
41 41 43 43 43 40 38 37 39 37 35 34 32 31 29 29 26 25 28 32 30 28 26 24 23 22 20 20 20 19 19 18 16 17 16 16 14 14 14 10 9 12 12 13 13
38 39 43 45 45 45 41 39 38 40 38 36 34 33 31 31 30 23 28 32 31 29 28 26 26 22 21 20 19 19 19 19 18 17 16 16 15 14 14 13 13 11 13 15 14
35 36 38 42 45 47 45 43 40 42 40 38 37 35 34 33 29 29 29 32 31 31 29 27 25 23 20 19 20 19 17 18 19 19 17 17 16 16 14 13 15 15 14 15 15
28 31 32 36 41 44 47 45 42 43 42 40 39 37 37 36 29 32 30 32 32 31 29 28 24 24 20 19 18 16 16 16 18 19 17 18 17 17 14 14 14 16 14 15 15
23 24 28 30 35 38 45 44 44 43 44 42 40 39 38 36 35 33 33 31 32 31 29 29 26 23 21 19 17 18 17 17 17 18 16 18 17 17 14 15 15 13 14 15 16
19 20 23 26 29 35 38 48 45 42 45 43 41 41 38 38 37 36 35 33 33 31 29 29 27 25 23 22 18 20 19 20 15 19 15 18 14 15 12 14 13 14 13 14 15
16 17 19 21 24 33 34 43 47 40 46 43 42 40 41 41 38 38 36 36 33 33 30 30 28 27 26 26 23 21 18 18 19 18 17 17 14 14 12 12 12 12 12 12 13
14 15 16 17 19 24 28 34 45 37 46 49 44 43 35 40 39 40 38 36 33 36 35 32 31 34 32 28 20 21 22 19 16 16 18 19 16 16 13 13 12 12 12 12 13
14 15 15 16 15 21 22 31 38 35 40 53 46 47 41 39 38 41 42 39 38 38 34 32 36 32 29 28 22 21 21 19 15 16 16 17 19 16 15 13 12 12 12 12 13
13 14 15 15 15 17 22 25 34 38 33 45 54 47 43 42 38 44 45 40 40 39 41 36 28 30 30 29 27 23 23 21 17 17 15 15 18 18 16 16 14 12 12 12 12
13 14 14 14 13 16 20 21 28 37 34 38 51 48 47 42 40 41 47 41 37 42 38 34 30 33 32 32 30 27 22 19 18 19 17 17 16 18 19 19 17 14 13 12 12
12 12 12 13 15 15 17 21 22 38 32 34 47 44 48 48 42 41 45 42 39 38 37 35 34 35 35 32 32 24 22 20 18 17 17 18 16 15 17 21 20 17 15 13 12
12 12 12 13 15 17 16 16 18 30 36 31 40 50 51 52 42 42 43 42 38 36 37 32 31 33 32 28 31 26 22 17 17 18 20 22 20 18 19 19 20 18 16 15 14
13 14 14 14 14 17 17 13 16 22 35 34 38 49 55 51 48 44 48 48 44 40 40 35 33 32 31 27 29 28 28 19 20 21 21 18 22 21 16 17 19 20 18 16 15
14 15 15 16 16 18 17 16 18 18 28 29 37 44 54 52 51 46 47 47 48 44 38 38 35 37 34 33 33 34 32 23 22 21 22 18 22 20 19 17 16 19 18 17 16
16 15 14 12 14 19 19 18 22 20 21 26 32 42 43 51 48 47 49 51 49 46 38 39 34 34 33 31 33 31 32 25 19 17 19 22 23 22 20 19 20 20 19 18 17
14 13 11 11 12 17 19 22 22 24 22 27 36 41 43 51 49 52 52 51 47 46 40 35 33 33 32 31 30 32 31 26 25 23 23 21 22 21 23 24 22 22 21 19 18
12 10 10 11 12 17 20 24 21 23 23 26 27 37 43 46 50 55 52 46 50 47 38 35 32 32 33 37 36 30 32 30 27 26 26 23 23 21 24 24 24 23 22 21 21
11 10 10 11 8 14 19 21 21 21 25 27 25 29 40 42 42 50 53 52 51 47 44 36 28 30 38 31 32 35 34 36 30 27 27 23 23 19 19 23 24 24 24 23 22
11 10 8 8 5 9 17 24 25 27 25 26 26 28 31 38 37 43 47 47 50 49 46 41 33 27 28 31 33 36 34 37 31 25 30 27 26 23 22 23 25 25 25 25 24
10 8 7 7 8 11 14 21 25 28 29 28 27 30 28 35 36 39 40 39 46 48 42 43 37 40 37 36 32 37 37 36 35 31 32 33 30 25 25 25 27 27 27 27 26
8 5 8 9 11 13 16 18 23 22 29 28 30 34 30 29 34 33 36 35 39 42 42 42 43 43 43 34 33 34 38 37 37 41 34 38 35 30 30 30 30 29 29 28 28
8 8 9 13 12 14 14 15 19 23 27 29 33 35 35 28 32 30 33 37 40 38 42 39 35 38 38 37 36 35 38 39 43 43 42 37 35 30 29 30 31 31 31 31 30
9 10 11 11 12 12 11 14 21 23 27 33 31 29 35 37 26 26 29 27 32 39 40 37 36 33 38 34 32 34 40 41 41 42 40 39 35 30 30 32 34 33 33 32 30
Wind_Direction
259 256 252 250 247 244 241 239 236 233 230 230 230 230 227 223 220 216 217 213 210 204 201 199 199 197 198 199 198 198 200 202 195 192 191 186 191 188 191 184 188 187 185 179 174
259 254 250 247 245 243 240 237 235 232 230 228 228 228 227 221 222 220 216 212 208 202 200 199 199 198 202 204 205 206 209 208 205 202 197 193 198 191 196 196 200 197 193 185 184
260 253 249 246 244 242 240 236 234 231 229 227 225 226 224 220 222 219 215 209 205 202 202 201 198 201 203 207 209 210 215 210 210 206 203 199 204 202 203 208 210 211 205 200 199
260 253 247 244 240 240 238 235 232 230 228 226 224 222 220 218 216 216 213 205 202 202 200 199 199 202 203 207 210 215 216 213 209 209 207 205 204 211 215 216 219 221 211 206 208
259 255 248 244 242 238 237 234 232 228 226 224 222 220 217 218 217 215 206 201 201 201 202 201 200 203 205 206 206 216 214 213 212 210 211 209 212 217 221 228 227 224 217 215 216
257 254 250 246 241 237 234 232 231 226 224 222 220 218 216 219 216 212 205 202 203 202 203 202 205 204 206 206 207 209 209 211 213 212 215 216 219 224 226 236 230 226 225 224 222
259 253 252 248 241 235 231 230 228 224 222 221 220 218 217 215 214 210 206 204 204 204 204 205 204 204 202 202 206 204 204 210 211 212 217 219 225 228 233 234 230 226 227 227 225
260 256 253 249 242 234 229 228 225 223 220 219 218 217 219 214 214 209 206 204 203 205 206 203 203 203 206 200 202 203 209 210 209 209 215 218 224 222 233 229 227 227 228 228 226
265 261 258 252 247 232 232 225 223 222 217 215 215 216 215 211 210 208 206 204 201 202 203 202 204 205 204 201 204 208 210 213 210 213 212 217 218 213 225 222 222 225 228 228 226
267 267 264 256 250 233 232 223 216 217 213 213 215 214 213 211 208 206 205 201 202 199 200 203 205 206 206 205 208 204 208 211 212 210 214 214 219 209 218 221 222 225 229 229 227
271 272 273 261 250 230 228 216 207 215 213 211 211 213 207 207 205 205 204 201 201 202 204 205 206 208 205 207 212 208 211 211 213 209 213 217 218 213 222 224 226 231 233 233 233
276 275 274 260 251 228 227 211 207 216 219 215 214 212 210 205 205 204 202 202 203 204 201 205 213 209 206 206 207 208 209 211 211 211 219 220 223 220 223 225 230 233 235 236 235
282 278 275 262 248 228 218 217 217 215 216 213 212 211 208 206 207 204 203 204 205 206 206 209 208 204 204 206 208 212 214 211 214 208 217 219 230 224 224 223 225 230 233 236 237
288 285 274 260 245 229 225 222 222 214 215 214 208 211 208 206 209 204 204 205 208 209 207 213 209 204 205 209 208 213 214 207 204 208 223 224 231 227 222 223 226 228 231 233 235
292 289 282 260 248 239 229 228 223 205 214 208 206 208 205 204 202 206 203 206 207 206 206 209 205 203 206 210 207 213 206 208 213 218 224 221 232 223 223 227 226 226 229 232 233
293 290 286 262 252 235 226 232 219 207 215 209 203 204 202 205 205 202 204 207 207 206 210 211 211 209 211 209 208 200 202 211 220 226 233 226 230 230 225 229 219 221 224 228 231
297 291 285 270 255 231 230 229 210 220 206 208 205 203 203 204 202 203 203 204 204 202 205 208 208 211 206 202 204 211 200 214 221 225 232 235 231 234 225 229 228 220 223 228 233
301 299 289 270 251 229 224 223 212 224 219 213 208 206 204 202 206 205 203 204 209 210 206 207 211 208 209 213 211 209 209 217 221 226 230 229 234 233 235 234 224 221 225 231 235
301 297 291 279 252 229 228 222 214 221 223 219 209 204 207 204 205 204 206 208 208 208 208 209 211 211 213 212 208 212 218 221 222 233 233 232 242 239 231 229 224 223 226 230 234
308 298 287 290 257 227 227 223 222 218 216 217 213 207 203 205 204 206 206 209 208 209 213 212 213 216 215 214 217 220 211 219 227 223 235 236 243 238 229 224 224 225 226 230 234
311 300 301 303 254 226 227 225 226 224 219 208 216 209 207 205 208 208 208 208 209 207 210 211 218 213 213 218 214 216 219 224 230 234 236 239 243 238 233 227 223 226 229 231 234
313 304 304 312 264 228 230 221 223 225 213 215 218 222 207 204 208 209 211 213 209 206 210 210 213 214 216 222 224 224 225 220 228 230 236 244 244 240 241 230 226 228 231 234 235
310 302 302 315 270 253 240 233 229 230 219 211 215 218 210 205 208 211 213 214 210 209 209 210 215 212 216 224 223 224 223 224 230 232 231 234 243 246 243 236 234 231 232 235 236
314 303 299 293 295 277 263 244 234 226 224 216 215 218 213 206 209 209 212 213 212 214 216 211 220 222 222 225 219 224 224 226 227 232 236 241 244 243 242 239 237 234 234 236 238
326 304 305 297 311 295 268 245 237 225 218 214 218 214 208 205 204 210 209 209 211 213 215 215 222 224 228 228 225 228 224 224 227 235 238 244 245 246 241 240 238 237 237 238 239
324 318 307 300 304 299 286 241 229 223 218 214 215 209 213 209 209 208 207 212 212 212 212 217 223 222 227 228 229 232 229 227 230 236 241 246 249 251 245 243 240 238 237 239 240
321 314 310 301 308 305 296 266 241 237 227 219 216 213 213 214 212 215 210 212 215 212 212 214 218 221 228 227 231 237 230 229 234 236 240 242 247 244 245 242 240 239 238 237 237